[[{"header":{"parameterUnit":"m.s-1","parameterCategory":1,"la1":30.2991,"la2":30.254,"lo1":-89.0895,"lo2":-89.0444,"dy":0.0017,"dx":0.0017,"nx":28,"ny":28,"refTime":"2024-03-21T03:00:00:Z","depth":0,"parameterNumber":2,"parameterNumberName":"U-component_of_WINDS"},"data":[0,0,0,0,0,0,0,0,0,0,0,0,0,0,0,0,0,0,0,0,0,0,0,0,0,0,0,0,0,0,0,0,0,0,0,0,0,0,0,0,0,0,0,0,0,0,0,0,0,0,0,0,0,0,0,0,0,0,-3.2367,-3.237,0,-3.261,-3.2613,-3.2615,-3.2579,-3.2575,-3.2571,-3.2567,-3.2832,-3.2843,-3.2854,0,0,0,0,0,0,0,0,0,0,0,0,0,-3.189,-3.1899,-3.2367,-3.237,-3.2373,-3.2609,-3.2613,-3.2616,-3.258,-3.2575,-3.257,-3.2565,-3.2829,-3.2841,-3.2855,0,0,0,0,0,0,0,0,0,0,0,0,0,-3.2112,-3.1902,-3.2366,-3.2383,-3.2387,-3.2609,-3.2613,-3.2617,-3.2581,-3.2575,-3.2568,-3.2563,-3.2824,-3.284,-3.2856,-3.3082,0,0,-3.2907,-3.2914,0,0,0,0,0,0,0,0,-3.2099,-3.2129,-3.2377,-3.2382,-3.2387,-3.2557,-3.2542,-3.2774,-3.2582,-3.2508,-3.2567,-3.256,-3.2747,-3.2769,-3.2829,-3.3095,-3.3106,-3.2908,-3.2918,-3.2925,-3.293,0,0,0,0,0,0,0,-3.2084,-3.2119,-3.2463,-3.2381,-3.2387,-3.2384,-3.2409,-3.2586,-3.266,-3.2514,-3.2512,-3.254,-3.2748,-3.2813,-3.2835,-3.311,-3.2908,-3.2922,-3.2932,-3.2939,-3.3579,-3.3585,0,0,0,0,0,0,-3.2061,-3.2106,-3.2456,-3.2471,-3.2224,-3.2398,-3.2425,-3.2509,-3.2658,-3.2674,-3.2545,-3.2537,-3.2788,-3.2816,-3.2844,-3.312,-3.2925,-3.294,-3.295,-3.3572,-3.358,-3.3588,0,0,0,0,0,0,-3.2051,-3.2093,-3.2446,-3.2288,-3.2333,-3.2412,-3.2507,-3.2517,-3.2582,-3.2681,-3.2696,-3.2596,-3.2785,-3.2821,-3.3023,-3.3129,-3.2948,-3.2963,-3.3563,-3.3574,-3.3584,-3.3673,0,0,0,0,0,0,-3.2038,-3.2089,-3.2171,-3.229,-3.2341,-3.2615,-3.2514,-3.2527,-3.2608,-3.2601,-3.2733,-3.2749,-3.2782,-3.2999,-3.304,-3.3148,-3.2975,-3.3554,-3.3568,-3.3581,-3.3661,-3.3686,-3.3707,0,0,0,0,0,-3.2021,-3.219,-3.2176,-3.2218,-3.2444,-3.2621,-3.2651,-3.2681,-3.2617,-3.2703,-3.2768,-3.2745,-3.3111,-3.302,-3.3065,-3.3181,-3.3547,-3.3564,-3.358,-3.3651,-3.3681,-3.3706,0,0,0,0,0,0,-3.2086,-3.2205,-3.2191,-3.2402,-3.2501,-3.2614,-3.2723,-3.2711,-3.2835,-3.2823,-3.286,-3.2891,-3.3096,-3.3159,-3.3055,-3.341,-3.3321,-3.3347,-3.336,-3.3389,-3.3411,-3.3392,-3.2989,0,0,0,0,0,-3.2124,-3.2252,-3.2352,-3.2529,-3.2579,-3.2643,-3.2721,-3.2736,-3.2842,-3.2886,-3.2965,-3.3074,-3.3214,-3.3305,-3.3439,-3.3671,-3.3702,-3.3773,-3.3796,-3.3814,-3.3836,-3.3967,-3.4001,-3.3641,-3.3641,-3.364,0,0,-3.2206,-3.2287,-3.2366,-3.2544,-3.2622,-3.276,-3.2679,-3.2827,-3.2931,-3.291,-3.3104,-3.3167,-3.3292,-3.351,-3.3611,-3.3569,-3.3943,-3.3835,-3.3848,-3.3861,-3.3987,-3.4021,-3.4052,-3.3652,-3.365,-3.3648,0,0,-3.2425,-3.2497,-3.2653,-3.2733,-3.2852,-3.2894,-3.2932,-3.3048,-3.3087,-3.3282,-3.327,-3.3398,-3.3637,-3.3727,-3.3804,-3.4062,-3.4047,-3.4105,-3.4224,-3.4351,-3.4379,-3.4405,-3.4499,-3.4532,-3.4127,-3.4127,-3.4128,0,-3.2512,-3.2712,-3.2737,-3.2886,-3.2967,-3.295,-3.3112,-3.3191,-3.335,-3.3409,-3.336,-3.3661,-3.3744,-3.3984,-3.4047,-3.411,-3.4158,-3.4089,-3.4372,-3.4398,-3.4422,-3.4512,-3.4547,-3.4134,-3.4133,-3.4132,-3.4132,0,-3.2816,-3.2957,-3.307,-3.3218,-3.3312,-3.3468,-3.3521,-3.3615,-3.3623,-3.3672,-3.3874,-3.3973,-3.4128,-3.4187,-3.4198,-3.4431,-3.4402,-3.4362,-3.4274,-3.4462,-3.4548,-3.4582,-3.4143,-3.414,-3.4138,-3.4137,0,0,-3.308,-3.324,-3.3281,-3.335,-3.3481,-3.3594,-3.3752,-3.3898,-3.398,-3.4092,-3.4228,-3.4433,-3.4397,-3.4485,-3.4507,-3.4619,-3.4819,-3.4566,-3.457,-3.4611,-3.5087,-3.5115,-3.5154,-3.4811,-3.4817,-3.4823,-3.5076,0,-3.3311,-3.3582,-3.3611,-3.3857,-3.3989,-3.3978,-3.4116,-3.4216,-3.4268,-3.4393,-3.4453,-3.4597,-3.4538,-3.4592,-3.4702,-3.4771,-3.4915,-3.4753,-3.4943,-3.4949,-3.4911,-3.5199,-3.5229,-3.5463,-3.511,-3.5116,-3.512,0,-3.3616,-3.3732,-3.3989,-3.4105,-3.4162,-3.4285,-3.4424,-3.4542,-3.4657,-3.4688,-3.4787,-3.4795,-3.4965,-3.4871,-3.5108,-3.4997,-3.5078,-3.5124,-3.5135,-3.5153,-3.5045,-3.5226,-3.5538,-3.5574,-3.5172,-3.5168,-3.5164,0,-3.3784,-3.4005,-3.4188,-3.4248,-3.4387,-3.4474,-3.4538,-3.4646,-3.4734,-3.4858,-3.4916,-3.5061,-3.514,-3.5255,-3.5304,-3.523,-3.554,-3.5449,-3.5574,-3.5573,-3.5639,-3.5634,-3.5969,-3.5691,-3.569,-3.569,-3.5689,0,-3.4039,-3.4198,-3.4265,-3.4378,-3.4558,-3.4592,-3.4771,-3.4832,-3.4929,-3.5059,-3.506,-3.5183,-3.524,-3.5374,-3.5414,-3.5607,-3.5643,-3.5676,-3.5685,-3.5676,-3.5672,-3.5729,-3.5714,-3.5699,-3.5697,-3.5695,-3.5694,0,-3.4256,-3.4307,-3.4506,-3.4621,-3.4654,-3.4782,-3.4884,-3.4997,-3.5048,-3.5212,-3.5253,-3.5336,-3.5493,-3.5554,-3.5748,-3.5775,-3.5998,-3.5994,-3.5957,-3.5959,-3.6081,-3.6069,-3.6464,-3.6519,-3.6204,-3.6207,-3.621,0,-3.4414,-3.4535,-3.4663,-3.4747,-3.4812,-3.4948,-3.5036,-3.5078,-3.5172,-3.5314,-3.5412,-3.5567,-3.5693,-3.5947,-3.6029,-3.6178,-3.6179,-3.6307,-3.6201,-3.6189,-3.6182,-3.6174,-3.6188,-3.6326,-3.633,-3.6332,-3.6334,0,-3.4691,-3.4711,-3.4835,-3.4971,-3.5076,-3.5186,-3.5293,-3.5364,-3.5423,-3.553,-3.5688,-3.5786,-3.5983,-3.6139,-3.6293,-3.6366,-3.6363,-3.6367,-3.6404,-3.6396,-3.6369,-3.6387,-3.601,-3.6358,-3.6355,-3.6354,-3.6352,-3.6351,-3.4885,-3.4993,-3.5099,-3.524,-3.5324,-3.5425,-3.5537,-3.5602,-3.5733,-3.5892,-3.5911,-3.6083,-3.6201,-3.6407,-3.6486,-3.6625,-3.6592,-3.6645,-3.6659,-3.6671,-3.668,-3.6347,-3.6654,-3.6653,-3.6653,-3.6652,-3.6652,0,-3.5163,-3.5231,-3.536,-3.5508,-3.562,-3.5602,-3.5722,-3.5818,-3.5967,-3.6075,-3.6199,-3.6384,-3.6537,-3.6631,-3.6786,-3.688,-3.6882,-3.6919,-3.6913,-3.693,-3.6701,-3.6653,-3.6914,-3.6914,-3.6914,-3.6914,-3.6914,-3.6914,-3.532,-3.5502,-3.5536,-3.5763,-3.5832,-3.5995,-3.6065,-3.6161,-3.6247,-3.6452,-3.6577,-3.6635,-3.6741,-3.6904,-3.7046,-3.707,-3.7128,-3.7168,-3.719,-3.6973,-3.6946,-3.692,-3.6876,-3.718,-3.718,-3.7408,-3.741,-3.7412]},{"header":{"parameterUnit":"m.s-1","parameterCategory":1,"la1":30.2991,"la2":30.254,"lo1":-89.0895,"lo2":-89.0444,"dy":0.0017,"dx":0.0017,"nx":28,"ny":28,"refTime":"2024-03-21T03:00:00:Z","depth":0,"parameterNumber":3,"parameterNumberName":"V-component_of_WINDS"},"data":[0,0,0,0,0,0,0,0,0,0,0,0,0,0,0,0,0,0,0,0,0,0,0,0,0,0,0,0,0,0,0,0,0,0,0,0,0,0,0,0,0,0,0,0,0,0,0,0,0,0,0,0,0,0,0,0,0,0,-0.2045,-0.2043,0,-0.1845,-0.1842,-0.184,-0.1737,-0.1737,-0.1737,-0.1737,-0.1525,-0.152,-0.1514,0,0,0,0,0,0,0,0,0,0,0,0,0,-0.233,-0.2325,-0.2045,-0.2043,-0.204,-0.1845,-0.1842,-0.184,-0.1737,-0.1737,-0.1737,-0.1737,-0.1527,-0.152,-0.1514,0,0,0,0,0,0,0,0,0,0,0,0,0,-0.2175,-0.2324,-0.2046,-0.1966,-0.1957,-0.1846,-0.1842,-0.1839,-0.1737,-0.1737,-0.1737,-0.1737,-0.1529,-0.1521,-0.1513,-0.1464,0,0,-0.1487,-0.1484,0,0,0,0,0,0,0,0,-0.2184,-0.2165,-0.198,-0.1971,-0.1961,-0.1816,-0.1865,-0.1713,-0.1737,-0.182,-0.1737,-0.1737,-0.1622,-0.1606,-0.1568,-0.1454,-0.1445,-0.1487,-0.1482,-0.1478,-0.1476,0,0,0,0,0,0,0,-0.2195,-0.2173,-0.1966,-0.1977,-0.1966,-0.1937,-0.1915,-0.1836,-0.1724,-0.1813,-0.1805,-0.1783,-0.1616,-0.1576,-0.1562,-0.1442,-0.1487,-0.1479,-0.1474,-0.1471,-0.1272,-0.1271,0,0,0,0,0,0,-0.222,-0.2183,-0.1972,-0.196,-0.2075,-0.1932,-0.1907,-0.1862,-0.1725,-0.1704,-0.1784,-0.1779,-0.1591,-0.1572,-0.1555,-0.1485,-0.1478,-0.147,-0.1465,-0.1272,-0.1272,-0.1271,0,0,0,0,0,0,-0.2226,-0.2202,-0.198,-0.2069,-0.2038,-0.1927,-0.1878,-0.1859,-0.1819,-0.1702,-0.1681,-0.1764,-0.159,-0.1566,-0.1486,-0.1476,-0.1466,-0.1459,-0.1272,-0.1272,-0.1271,-0.1348,0,0,0,0,0,0,-0.2235,-0.2205,-0.2188,-0.2069,-0.2034,-0.1919,-0.1877,-0.1855,-0.1805,-0.1798,-0.1678,-0.1658,-0.1588,-0.1499,-0.1478,-0.1465,-0.1452,-0.1273,-0.1272,-0.1272,-0.1346,-0.135,-0.1354,0,0,0,0,0,-0.2246,-0.2217,-0.2188,-0.2163,-0.2011,-0.1918,-0.1898,-0.182,-0.1805,-0.1785,-0.1709,-0.1662,-0.1481,-0.1492,-0.1467,-0.1451,-0.1273,-0.1272,-0.1272,-0.1344,-0.1349,-0.1354,0,0,0,0,0,0,-0.2336,-0.22,-0.2166,-0.2099,-0.2021,-0.1901,-0.1874,-0.1828,-0.1751,-0.1747,-0.1651,-0.1624,-0.1553,-0.1494,-0.1509,-0.1394,-0.1372,-0.1366,-0.1435,-0.1439,-0.1443,-0.1458,-0.1445,0,0,0,0,0,-0.2349,-0.2288,-0.2171,-0.2123,-0.2085,-0.1987,-0.1943,-0.189,-0.1804,-0.177,-0.1689,-0.1606,-0.1529,-0.1481,-0.1405,-0.1337,-0.1307,-0.1313,-0.1317,-0.1321,-0.1316,-0.1272,-0.1272,-0.1269,-0.1269,-0.1269,0,0,-0.2373,-0.2291,-0.2258,-0.2139,-0.2072,-0.2008,-0.196,-0.1895,-0.1844,-0.1759,-0.1679,-0.1616,-0.1516,-0.1441,-0.1404,-0.139,-0.131,-0.132,-0.1324,-0.1317,-0.1271,-0.1271,-0.1272,-0.1269,-0.1269,-0.1269,0,0,-0.2384,-0.2318,-0.2269,-0.2203,-0.2103,-0.2036,-0.2025,-0.1911,-0.1866,-0.1784,-0.1718,-0.1655,-0.1527,-0.1458,-0.1406,-0.1386,-0.1339,-0.1364,-0.1385,-0.1342,-0.1343,-0.1342,-0.1332,-0.133,-0.136,-0.1361,-0.1361,0,-0.2427,-0.233,-0.2249,-0.2187,-0.2134,-0.2055,-0.2002,-0.1941,-0.182,-0.1784,-0.177,-0.1605,-0.1533,-0.1438,-0.1433,-0.1395,-0.1375,-0.1377,-0.135,-0.1348,-0.1347,-0.1336,-0.1333,-0.1364,-0.1364,-0.1363,-0.1363,0,-0.2386,-0.2319,-0.2291,-0.2177,-0.2121,-0.2064,-0.1971,-0.1923,-0.1873,-0.1807,-0.1722,-0.1632,-0.1534,-0.1508,-0.1458,-0.1405,-0.1399,-0.1369,-0.1344,-0.1352,-0.134,-0.1336,-0.1369,-0.1368,-0.1367,-0.1366,0,0,-0.2451,-0.2291,-0.2282,-0.2227,-0.2109,-0.2055,-0.1991,-0.1897,-0.1857,-0.1775,-0.1717,-0.1609,-0.1579,-0.152,-0.1462,-0.1425,-0.1411,-0.1398,-0.1394,-0.1401,-0.1342,-0.1365,-0.1362,-0.1379,-0.1378,-0.1377,-0.135,0,-0.2444,-0.233,-0.2253,-0.2168,-0.2103,-0.2025,-0.1969,-0.1889,-0.1825,-0.1757,-0.1685,-0.1609,-0.1577,-0.154,-0.15,-0.1422,-0.1397,-0.1422,-0.1321,-0.1318,-0.1347,-0.1356,-0.138,-0.1359,-0.1345,-0.1344,-0.1343,0,-0.2421,-0.2343,-0.2252,-0.2137,-0.2107,-0.2059,-0.1964,-0.1902,-0.1807,-0.1763,-0.1695,-0.1635,-0.1561,-0.1543,-0.1438,-0.1456,-0.1409,-0.1364,-0.1361,-0.1348,-0.1331,-0.134,-0.1351,-0.1347,-0.1336,-0.1337,-0.1337,0,-0.2475,-0.2346,-0.2274,-0.223,-0.2096,-0.2063,-0.2004,-0.191,-0.1857,-0.1773,-0.1736,-0.1645,-0.1594,-0.1523,-0.1437,-0.1433,-0.1339,-0.1315,-0.1297,-0.1299,-0.128,-0.1282,-0.1281,-0.1253,-0.1253,-0.1253,-0.1253,0,-0.2474,-0.2421,-0.2295,-0.2251,-0.2187,-0.2097,-0.2036,-0.197,-0.1886,-0.1825,-0.1751,-0.1694,-0.1586,-0.1514,-0.1447,-0.1368,-0.1346,-0.1305,-0.1287,-0.1311,-0.1316,-0.1278,-0.1276,-0.1252,-0.1252,-0.1253,-0.1253,0,-0.2524,-0.2438,-0.2353,-0.2232,-0.22,-0.2158,-0.2053,-0.2004,-0.1935,-0.1858,-0.1835,-0.1725,-0.1637,-0.1545,-0.1426,-0.138,-0.1302,-0.1279,-0.1335,-0.1325,-0.131,-0.1312,-0.1284,-0.1274,-0.1256,-0.1256,-0.1256,0,-0.2529,-0.2486,-0.236,-0.2314,-0.2258,-0.2186,-0.2131,-0.2039,-0.1984,-0.1871,-0.1835,-0.1742,-0.1662,-0.1525,-0.1432,-0.1339,-0.1312,-0.1308,-0.1297,-0.1321,-0.1308,-0.1311,-0.1305,-0.1312,-0.1312,-0.1313,-0.1314,0,-0.2546,-0.2504,-0.243,-0.2339,-0.2276,-0.22,-0.212,-0.2086,-0.1978,-0.1919,-0.1829,-0.1768,-0.1645,-0.1551,-0.1447,-0.1383,-0.1328,-0.1318,-0.1308,-0.1331,-0.1364,-0.1343,-0.1343,-0.1319,-0.1318,-0.1318,-0.1317,-0.1317,-0.2571,-0.2528,-0.2431,-0.2349,-0.228,-0.2206,-0.2154,-0.2078,-0.2002,-0.1896,-0.1845,-0.1754,-0.1655,-0.1509,-0.1446,-0.1371,-0.1355,-0.1342,-0.1338,-0.1336,-0.1341,-0.1377,-0.1352,-0.1351,-0.1351,-0.1351,-0.1351,0,-0.2582,-0.2516,-0.2441,-0.2332,-0.2266,-0.2223,-0.2131,-0.2078,-0.2,-0.1913,-0.1836,-0.173,-0.1638,-0.1538,-0.144,-0.1398,-0.1371,-0.1375,-0.1376,-0.1362,-0.1362,-0.1379,-0.1399,-0.1399,-0.1399,-0.1399,-0.1399,-0.1399,-0.258,-0.2503,-0.245,-0.2337,-0.2269,-0.2181,-0.2132,-0.2062,-0.1992,-0.1878,-0.1802,-0.1738,-0.1644,-0.1537,-0.145,-0.1422,-0.1388,-0.1399,-0.1365,-0.1366,-0.1362,-0.1359,-0.1374,-0.1393,-0.1393,-0.137,-0.137,-0.137]}]]